Theta_e
321 321 321 322 322 322 322 322 323 323 324 324 325 325 325 325 324 325 325 325 325 325 325 325 326 326 326 326 328 327 321 304 304 304 304 304 313 331 333 337 334 335 328 306 304 304 302 301 303 301 302 303 301 301 301 305 299 300 293 285 284 285 285 287 289 290 293 293 293 292 293 294 293 292 297 296 296 294 293 295 295 296 294 296 295 296 299 298
320 320 321 321 321 322 321 322 323 323 323 323 324 324 324 324 324 325 325 325 325 325 325 326 326 326 327 326 327 326 315 307 304 303 304 317 333 338 337 338 337 334 320 308 305 299 300 300 300 301 301 300 302 301 303 301 304 296 287 285 287 285 290 292 291 291 292 292 291 292 290 293 295 294 295 296 291 292 294 293 293 296 296 296 295 296 297 297
320 320 320 321 321 321 321 322 322 323 323 323 323 324 324 323 324 324 324 325 324 324 325 325 326 325 326 327 326 325 313 308 301 300 305 330 336 336 339 337 334 330 310 308 302 301 300 298 299 300 299 299 297 300 301 300 303 296 291 288 287 289 290 291 293 295 292 294 295 292 291 291 293 294 295 294 295 291 292 292 293 294 298 297 294 295 296 296
320 320 320 320 321 321 321 321 322 322 323 323 323 323 323 323 323 324 324 324 324 324 325 325 325 325 325 326 327 317 308 297 294 297 301 323 332 338 339 335 334 325 312 309 304 301 299 299 299 300 298 298 293 300 299 300 299 295 293 289 290 290 292 295 294 295 296 294 293 292 291 290 290 292 294 291 292 293 294 295 297 296 297 299 293 294 295 295
319 320 320 320 320 321 321 321 322 322 323 323 323 323 323 323 323 323 324 324 324 324 324 325 325 326 326 326 324 309 301 292 299 300 303 333 335 335 338 337 332 313 307 304 302 300 299 298 298 298 298 293 294 298 297 297 297 295 297 296 294 291 292 296 294 292 292 290 291 290 291 295 293 292 292 293 293 296 293 294 297 299 299 297 293 294 294 294
319 319 320 320 320 321 320 321 322 322 322 323 323 323 322 323 323 323 323 323 324 324 324 325 325 325 326 325 309 305 297 288 301 307 327 333 335 337 337 334 330 309 304 304 302 299 301 300 299 297 295 294 293 294 291 298 298 294 294 295 296 295 295 297 296 293 291 293 292 291 294 292 292 293 290 292 295 299 297 293 296 298 300 299 297 294 294 294
319 319 320 319 320 320 320 321 322 322 322 322 322 322 323 323 323 323 323 323 323 324 324 325 325 325 325 322 304 298 297 295 298 307 327 333 335 334 335 333 324 309 304 302 300 300 298 297 298 293 292 293 291 292 293 295 297 296 295 291 295 294 296 298 298 295 293 291 294 292 290 292 292 293 291 291 298 300 298 294 295 296 295 296 294 294 295 295
320 319 319 319 319 319 320 321 322 322 322 323 323 323 323 323 323 323 322 323 323 323 324 324 324 325 323 304 304 296 297 298 300 310 329 331 327 326 319 309 308 305 305 303 299 298 296 296 297 294 294 294 291 293 294 295 295 295 295 293 295 295 295 297 294 292 290 290 291 290 291 295 294 293 291 296 299 300 297 297 297 294 293 294 295 294 295 295
320 320 319 319 319 319 319 321 321 322 322 323 323 323 323 323 323 322 322 323 323 323 323 324 323 324 323 302 299 296 295 301 302 305 317 318 313 307 304 305 305 305 301 299 298 299 299 295 296 296 294 292 293 294 292 294 292 294 297 294 292 294 293 294 292 291 291 292 290 292 293 295 294 292 292 298 300 300 298 296 296 294 291 293 295 295 295 295
321 320 320 319 319 319 320 321 321 322 323 323 323 323 323 323 322 322 322 323 322 322 323 323 324 323 307 300 297 293 299 301 308 308 313 312 309 309 306 303 306 301 300 298 297 297 298 294 299 297 298 295 294 294 292 293 292 291 292 291 292 293 291 292 291 293 290 290 288 293 295 296 292 293 294 300 297 295 294 293 292 292 294 294 295 295 295 295
321 320 320 320 319 320 320 321 321 322 322 322 323 323 323 323 323 323 322 322 322 322 323 323 324 316 305 300 295 293 302 308 306 308 311 308 308 305 305 303 303 302 298 297 298 298 298 296 298 298 300 295 294 292 293 294 292 293 292 291 291 291 291 292 291 292 292 294 291 294 294 294 289 290 294 300 293 294 294 291 291 291 293 294 294 294 295 295
321 321 321 321 320 320 321 321 321 321 322 322 322 323 322 322 322 322 322 322 322 322 322 323 322 315 303 298 294 297 305 307 305 307 309 307 305 305 303 302 302 303 299 296 296 298 299 298 300 299 293 297 291 293 291 291 294 293 292 292 292 290 292 295 292 293 291 294 289 291 290 290 289 288 296 298 300 296 293 295 293 291 292 293 293 294 294 295
321 321 321 321 320 320 320 321 321 321 321 322 322 322 322 322 322 322 322 322 322 322 322 323 317 309 303 295 299 303 305 302 303 305 306 305 303 303 302 300 302 300 299 298 298 300 298 300 301 299 296 297 290 293 293 294 293 292 291 288 291 290 289 295 290 290 290 292 289 291 286 285 291 294 296 298 296 294 292 295 296 294 293 293 292 293 294 295
321 321 321 321 321 320 320 320 321 321 321 322 322 322 322 322 322 322 322 321 322 322 322 324 310 305 299 294 298 306 307 301 303 305 304 305 304 304 304 305 304 303 303 302 302 302 301 300 300 299 298 296 294 295 296 290 289 291 288 288 286 285 286 292 291 288 290 290 290 292 287 289 292 295 296 296 294 292 294 295 296 296 294 293 293 293 294 295
321 320 321 321 320 320 320 320 321 321 321 321 321 321 322 321 321 322 322 321 322 323 323 316 305 300 294 297 302 306 320 303 304 302 304 304 302 303 303 305 303 302 302 302 303 302 301 300 300 299 295 295 296 294 289 284 283 285 286 284 280 285 287 292 290 290 291 289 288 291 286 289 293 295 297 294 293 290 292 294 294 295 295 293 292 293 293 295
321 321 321 320 320 320 320 320 320 321 321 321 321 321 320 320 320 321 321 321 322 321 315 306 307 296 291 292 301 314 305 303 302 303 304 306 303 303 300 302 302 301 302 300 301 300 299 300 297 292 294 294 293 287 282 285 284 282 286 284 285 282 284 286 293 287 292 290 289 292 288 286 288 293 295 293 293 290 292 293 294 294 294 295 294 293 293 294
321 321 321 320 320 320 320 320 320 320 321 321 320 320 320 320 321 321 322 320 317 317 309 301 305 304 292 297 306 299 299 302 303 304 304 304 303 302 302 301 301 299 299 299 299 301 296 297 295 294 289 292 286 285 284 280 283 284 283 283 283 284 285 284 287 292 286 289 287 289 287 289 293 293 292 293 291 288 289 292 293 293 293 293 293 293 293 293
321 320 320 320 320 320 320 320 320 320 321 320 320 320 316 321 322 318 315 313 313 311 309 308 302 297 296 299 296 298 302 301 304 302 301 301 302 301 299 297 297 297 298 295 299 296 295 294 291 290 288 290 287 286 284 281 284 283 282 281 284 283 284 287 284 286 287 288 287 286 287 288 291 293 293 294 295 290 290 293 294 294 294 293 293 293 294 294
321 320 320 320 320 320 320 319 320 321 320 320 320 317 318 318 305 307 309 307 299 295 293 294 293 290 289 296 298 297 303 306 302 304 302 304 303 299 299 297 297 298 293 292 291 294 290 290 290 288 287 288 289 288 287 288 288 286 285 285 281 283 283 283 288 291 290 290 286 284 288 290 291 292 294 295 295 294 294 294 294 294 294 294 295 295 296 296
321 321 320 320 320 320 320 320 320 321 321 316 307 303 300 298 293 298 298 300 299 294 295 294 300 294 296 295 298 301 305 304 302 301 302 303 305 301 299 296 294 293 290 290 291 291 293 288 286 286 289 291 291 290 291 291 290 286 285 283 285 284 286 287 289 289 288 286 287 289 289 290 290 291 293 295 295 295 294 294 294 295 295 295 295 296 297 297
321 321 320 320 320 320 320 320 321 320 320 309 302 299 294 293 290 289 294 296 299 299 298 298 299 300 299 300 298 302 301 300 301 300 303 306 301 302 297 296 293 290 289 289 291 292 291 287 286 290 292 293 291 290 290 289 287 287 286 283 286 283 286 290 290 290 287 285 285 286 288 289 290 292 293 295 293 293 295 295 295 295 295 296 296 296 297 298
320 321 321 320 320 320 321 321 321 320 316 301 302 298 297 296 298 297 294 292 295 296 296 298 298 298 301 302 300 301 299 296 297 300 305 304 300 299 294 294 288 291 288 289 289 288 286 286 289 291 294 291 289 288 287 287 287 286 286 285 283 285 288 290 290 292 289 285 287 287 287 289 290 292 293 294 294 295 296 297 297 297 296 296 297 297 297 298
320 320 321 320 320 320 320 320 320 317 304 302 298 297 297 301 299 299 298 292 292 296 296 296 295 296 298 300 300 300 297 296 296 299 302 302 297 297 293 292 290 288 288 289 289 286 284 285 290 292 291 289 288 287 285 286 285 284 284 281 283 287 284 285 285 285 285 288 284 283 286 288 290 292 293 294 295 296 296 297 297 297 296 296 297 298 298 298
320 320 320 320 320 320 320 320 318 307 303 298 299 300 301 298 299 301 297 290 289 293 296 297 297 295 296 297 300 301 298 294 296 295 301 300 297 294 293 291 287 287 289 290 290 289 289 287 289 291 289 289 289 288 286 284 287 285 286 285 285 285 287 286 285 284 286 286 284 286 287 288 290 289 290 293 295 294 295 295 295 296 297 297 298 298 298 298
320 319 320 319 319 320 319 319 305 302 302 300 298 299 299 297 299 300 294 289 287 290 296 295 297 296 297 301 301 297 295 297 294 296 300 301 293 293 291 290 289 289 289 290 289 288 289 289 287 288 288 287 286 285 286 287 285 286 285 287 288 289 287 286 286 285 281 283 283 284 282 286 285 288 289 291 290 290 292 292 293 295 296 296 296 296 297 297
319 319 319 319 319 320 320 308 302 304 303 301 302 302 297 296 297 298 292 284 283 287 292 292 299 296 302 295 299 296 294 292 293 295 300 299 301 296 291 290 291 290 288 287 288 287 288 289 290 288 287 286 285 286 287 287 287 286 283 287 289 288 286 285 285 283 279 277 284 283 280 282 282 284 286 287 288 290 290 290 292 294 295 295 295 297 297 297
320 320 320 320 320 320 313 306 306 305 302 301 302 299 297 298 299 299 289 284 284 290 289 295 296 295 299 296 297 295 288 287 296 297 297 299 298 297 291 288 289 288 289 287 284 284 287 286 286 287 287 286 284 283 288 288 286 284 283 284 285 284 284 285 284 284 283 281 283 283 282 280 283 286 288 289 290 289 289 291 292 294 295 295 296 296 296 297
320 320 320 320 320 318 313 310 308 306 305 304 301 299 298 298 297 298 288 280 278 293 291 291 295 301 300 296 296 291 291 291 289 295 295 296 297 295 292 288 289 287 288 288 283 287 287 285 284 285 284 283 285 289 288 289 287 283 286 284 285 286 284 283 284 282 280 279 280 281 282 280 282 285 286 288 285 287 288 291 293 295 296 296 296 296 296 297
320 320 319 319 320 320 312 310 307 307 307 304 302 300 300 299 295 287 284 280 291 289 302 293 303 298 294 296 294 287 291 289 289 291 293 296 297 294 289 288 288 286 286 289 288 287 285 287 286 288 286 285 288 287 287 290 286 285 284 284 283 282 282 282 280 282 279 277 279 280 283 279 282 288 282 284 285 286 288 291 293 294 295 296 296 297 297 296
319 320 320 319 318 315 312 311 309 309 307 306 305 303 302 300 293 286 283 279 294 288 294 295 295 291 291 289 289 288 291 288 288 289 292 292 294 294 293 292 290 289 289 288 286 287 286 290 288 287 287 289 285 285 284 288 287 285 285 284 282 281 278 277 277 278 279 278 281 282 283 283 279 283 284 283 286 287 290 289 291 293 294 295 295 296 297 297
314 317 319 318 314 314 313 309 312 312 308 308 307 305 302 298 289 285 282 289 293 293 293 292 290 292 290 290 287 287 290 287 290 290 290 292 292 289 289 291 288 282 281 283 285 289 287 287 288 286 288 286 285 286 283 283 284 287 287 280 283 284 277 276 270 276 275 277 280 283 283 284 279 280 281 284 283 283 289 289 291 292 293 294 295 295 296 296
314 314 317 317 317 317 312 310 311 311 309 308 308 303 301 289 290 282 285 296 288 290 288 288 287 286 287 287 287 286 287 288 287 289 288 286 285 287 287 286 285 281 279 279 284 281 282 286 287 289 288 291 286 287 284 281 286 286 282 284 280 275 273 270 271 271 272 278 278 281 283 280 281 287 285 286 289 287 286 290 291 291 292 293 293 294 295 295
314 313 314 317 316 314 316 313 311 310 309 309 305 302 292 286 282 288 286 289 290 292 289 290 288 290 287 287 286 285 287 288 288 289 290 287 287 287 285 288 284 287 284 281 280 280 283 282 285 287 289 289 290 285 282 282 284 284 284 281 278 272 271 269 267 266 270 277 277 279 282 281 286 285 289 292 294 295 293 290 291 292 293 293 294 294 293 293
313 313 309 313 317 317 316 312 312 310 308 306 301 296 290 284 284 293 288 290 293 290 291 288 289 287 287 289 285 287 288 287 287 289 291 287 286 284 286 286 284 286 285 281 282 280 279 283 284 287 285 288 292 291 290 289 284 287 285 287 283 280 272 271 273 277 279 281 276 277 277 275 275 282 285 292 290 288 287 290 291 291 291 291 290 291 292 293
313 311 311 313 315 318 316 312 311 311 308 304 298 293 286 285 289 286 285 285 286 289 293 290 289 286 286 286 285 287 291 289 288 286 287 286 284 283 283 285 287 287 283 283 284 278 283 284 286 291 287 289 290 294 291 284 284 284 283 282 280 282 282 283 284 281 283 280 275 273 278 277 283 286 287 287 289 290 289 288 287 289 290 290 291 292 294 295
309 308 313 312 313 316 317 313 311 311 307 300 293 287 287 289 283 287 288 293 293 290 290 291 289 286 284 283 283 285 289 289 287 288 286 286 286 285 284 283 287 290 287 285 286 281 283 281 285 288 286 288 286 287 290 290 282 283 285 282 286 286 287 285 285 285 278 274 279 278 278 284 286 291 290 288 288 290 290 289 289 290 291 290 291 294 294 295
302 305 304 309 312 316 316 313 311 309 305 298 291 286 293 291 295 288 297 293 293 291 289 288 287 288 285 283 285 284 288 289 286 286 285 287 286 288 285 286 289 290 292 292 285 290 285 287 287 285 286 286 283 285 286 284 287 284 280 284 286 287 285 284 276 276 277 277 279 280 281 283 281 281 283 283 284 284 284 286 289 289 289 289 292 292 292 292
302 303 305 305 311 316 316 312 311 307 302 295 288 293 293 292 294 297 292 292 294 294 291 289 289 293 285 289 287 286 287 288 285 285 282 286 287 290 285 286 289 290 292 294 287 287 289 282 288 286 286 286 284 288 287 287 286 283 282 287 286 280 280 280 275 275 276 276 277 281 283 284 284 285 288 288 290 290 290 289 287 288 288 288 289 291 291 291
303 302 296 301 309 316 314 312 309 304 297 291 289 290 296 296 295 292 296 297 295 294 291 291 290 290 292 289 290 290 289 287 286 283 286 286 285 290 290 291 290 291 291 293 287 286 287 283 285 287 287 287 285 285 280 283 285 286 286 284 285 283 280 278 281 278 281 278 280 279 283 281 288 283 286 286 287 288 288 285 287 287 287 287 288 290 291 291
298 296 293 303 309 315 312 311 304 300 295 288 291 292 295 290 294 294 294 298 293 293 289 292 291 290 292 292 291 290 287 290 289 288 289 290 291 294 289 293 290 292 291 292 289 291 285 286 279 287 285 286 282 284 281 283 282 284 284 281 283 282 283 283 283 281 281 279 279 279 279 284 289 285 287 286 285 284 285 286 285 286 287 288 288 289 290 290
301 296 296 311 313 313 311 306 298 293 292 294 296 294 296 294 294 293 294 295 295 298 295 290 290 290 290 290 291 292 288 288 288 288 288 289 292 287 290 291 292 291 291 290 290 288 286 285 282 285 285 286 287 287 286 285 286 283 284 283 285 283 280 280 278 286 281 281 278 280 277 285 292 292 287 288 285 284 285 285 288 290 291 289 288 288 287 290
295 289 295 311 313 312 305 295 294 295 292 292 292 296 293 300 295 295 293 294 294 293 296 294 292 292 291 292 292 291 288 286 288 288 287 289 291 293 292 293 292 292 291 287 287 291 290 285 285 283 285 287 290 290 287 288 289 289 289 287 289 286 284 281 277 281 284 283 285 284 281 282 293 297 294 289 288 286 289 288 289 289 288 289 292 290 289 289
292 291 302 308 313 310 302 294 296 293 292 293 296 296 295 292 290 291 292 292 292 295 292 293 293 291 293 293 291 289 289 286 288 288 288 288 290 295 293 294 294 293 295 286 291 290 292 286 282 285 288 289 291 293 291 289 288 286 286 288 287 286 287 285 284 285 283 284 282 282 280 283 295 295 295 295 294 289 286 286 288 286 287 290 291 293 294 293
291 291 293 302 308 305 297 288 289 291 292 295 295 295 296 294 293 292 292 291 292 291 293 291 291 295 292 292 290 288 291 285 290 291 289 291 289 296 296 296 297 293 294 289 291 293 287 286 286 282 282 283 285 287 288 286 284 284 286 287 288 289 289 288 288 285 282 283 283 281 276 283 293 294 295 296 295 294 294 292 287 290 292 291 291 290 290 290
291 293 293 295 303 302 292 296 294 291 292 292 293 292 293 293 293 295 295 292 294 292 291 290 294 291 290 292 290 291 290 291 287 289 289 287 290 292 293 294 296 295 298 296 296 296 290 287 285 279 276 274 274 276 278 281 282 282 283 287 288 287 287 285 281 283 279 283 284 281 281 287 292 293 293 294 294 295 295 295 291 287 287 289 289 289 291 292
285 280 286 293 297 295 295 299 295 293 289 290 290 292 294 291 293 291 293 293 296 293 294 291 288 290 288 286 286 288 288 289 288 284 287 282 284 286 286 288 291 292 294 295 293 293 285 286 288 286 283 280 282 284 287 287 282 282 283 284 285 287 288 287 286 283 280 283 283 284 285 285 288 290 291 292 293 293 293 294 294 292 292 291 289 289 290 291
289 283 283 278 290 293 291 294 293 293 289 294 287 291 290 292 292 292 294 288 290 292 290 292 291 289 288 289 287 287 288 288 289 288 287 287 284 283 286 286 288 290 292 292 292 290 284 285 286 287 286 287 287 287 288 288 285 286 285 285 285 284 283 283 282 281 287 283 279 286 287 285 286 290 291 291 292 293 294 294 295 295 295 294 292 289 289 287
281 284 288 288 286 283 287 287 290 289 291 290 288 290 287 288 288 287 289 290 289 288 287 287 290 288 286 286 286 284 286 286 286 285 285 283 282 283 284 286 287 289 288 285 289 288 284 283 286 287 285 288 288 288 289 288 287 287 287 286 286 287 286 283 283 284 284 281 279 285 286 285 287 289 291 292 293 293 294 295 296 297 293 287 286 285 285 285
285 285 285 289 283 285 286 286 286 286 285 287 284 288 286 286 286 289 289 287 289 287 291 285 283 283 284 285 285 282 284 281 282 282 281 280 280 282 281 284 286 287 286 285 286 287 285 282 285 285 284 285 286 287 288 287 286 286 286 287 288 287 286 286 286 287 286 284 285 286 286 286 288 290 292 292 291 290 291 291 287 284 283 285 284 284 283 283
279 283 281 288 286 284 284 284 284 284 282 287 284 285 287 286 286 286 285 287 284 285 291 285 282 283 281 283 284 281 282 284 282 280 283 281 279 283 281 283 282 284 284 282 284 286 286 281 287 284 282 283 286 287 287 286 286 284 286 287 287 287 287 287 287 287 287 286 287 286 286 286 291 285 282 282 283 284 284 284 283 283 282 282 282 282 282 282
285 288 289 283 280 282 281 280 280 281 281 283 282 284 287 286 286 284 282 288 286 284 286 282 283 281 283 282 282 282 285 282 283 282 283 282 277 283 280 280 286 279 281 282 284 284 285 280 285 283 279 279 284 285 285 285 284 283 283 284 285 285 284 286 285 288 286 284 286 286 284 284 281 280 282 281 280 280 280 281 280 280 280 280 280 280 281 281
283 282 287 286 278 283 279 281 279 278 275 278 282 282 284 282 282 284 281 287 288 288 284 282 282 281 280 281 280 282 286 285 284 286 286 286 286 285 285 283 283 282 281 281 284 281 282 281 280 280 277 276 282 284 283 283 281 278 280 284 286 286 287 288 288 288 288 287 283 282 279 275 277 279 277 278 278 278 279 280 280 280 280 279 279 279 280 280
Wind_Speed
13 13 14 14 14 15 14 14 15 15 14 14 13 13 13 13 13 13 13 14 14 13 14 14 14 14 13 12 11 10 10 1 1 0 0 8 4 4 5 3 10 10 9 5 4 5 1 1 2 3 3 1 1 0 1 0 1 1 1 3 3 5 3 5 5 7 1 1 4 5 0 2 4 3 1 1 2 2 1 2 4 3 3 1 3 2 2 6
12 12 13 14 14 14 14 14 14 14 14 14 14 14 14 13 13 13 13 13 13 13 14 14 14 14 12 11 9 9 5 1 0 0 11 2 3 2 5 5 11 11 9 4 6 4 5 1 1 2 2 0 1 1 1 1 1 3 1 2 8 5 7 6 4 5 0 6 3 4 2 3 8 0 2 1 5 2 5 4 1 5 7 1 3 3 7 9
11 12 12 13 13 13 13 13 13 13 14 14 14 14 14 14 13 13 14 13 13 13 13 14 14 14 12 10 9 6 2 2 0 2 3 2 2 2 4 7 11 12 4 3 4 7 5 8 6 4 2 0 2 2 1 1 2 3 4 6 7 8 6 5 4 5 7 2 8 6 3 4 4 1 0 3 10 3 9 6 2 6 11 11 2 3 6 8
10 11 11 12 12 12 12 12 13 14 14 14 14 15 14 14 14 13 13 13 13 13 13 14 13 13 12 10 8 3 1 1 0 2 2 4 1 4 6 8 9 5 1 3 5 4 4 8 5 4 1 0 2 0 1 3 2 2 2 5 5 4 2 7 8 11 10 2 3 3 0 2 6 6 2 4 6 11 11 7 10 12 13 12 7 6 7 9
9 10 11 11 11 12 12 12 13 14 14 14 14 15 14 14 14 14 14 14 13 13 13 13 13 13 12 9 7 1 2 3 1 1 2 2 3 5 7 8 8 4 3 6 7 4 3 4 4 1 2 3 1 0 4 2 3 4 9 6 6 1 2 9 6 6 3 3 2 3 5 7 0 0 5 6 10 16 4 8 13 13 12 8 9 11 8 10
8 9 10 11 11 12 12 13 13 14 14 15 15 15 15 15 15 14 15 14 14 14 13 13 13 13 11 8 1 1 3 3 0 1 3 3 4 4 5 7 8 5 5 4 3 3 4 1 4 1 1 1 5 6 3 3 4 5 4 6 7 6 6 2 2 3 3 2 2 5 4 3 3 7 4 5 14 19 3 4 10 12 12 9 6 9 10 12
7 8 10 10 11 12 13 13 13 14 14 15 15 15 15 15 14 15 14 15 14 14 14 13 12 12 13 3 1 2 2 5 2 6 6 5 5 5 6 7 7 4 4 4 2 3 3 2 3 3 2 0 4 4 5 2 1 3 8 1 6 6 11 9 8 4 4 4 7 4 4 5 5 12 1 5 17 18 8 7 7 8 5 4 8 14 17 18
7 8 8 9 10 12 13 14 14 14 15 15 16 16 15 16 15 14 14 13 13 13 13 13 12 11 10 1 0 1 1 5 9 1 7 7 6 7 8 4 5 4 4 7 7 4 4 5 6 2 2 6 3 6 1 1 1 5 8 4 6 2 7 9 7 6 5 8 6 4 6 15 9 9 5 17 22 13 9 7 11 8 3 5 8 13 13 13
6 8 8 9 10 10 12 13 14 15 15 16 16 17 17 16 15 14 14 14 12 13 12 11 10 10 3 2 2 4 6 6 5 6 6 7 6 7 7 3 3 6 3 2 4 6 6 6 5 6 7 1 2 2 2 2 8 7 13 2 4 4 6 6 6 7 6 5 3 2 12 14 11 4 10 25 24 12 10 8 9 6 5 7 11 12 13 14
8 10 9 10 10 12 13 14 15 16 16 17 18 18 18 18 16 15 14 13 13 11 12 10 8 7 3 2 1 4 6 4 1 5 6 8 7 7 2 2 7 5 4 3 2 4 7 6 9 6 2 2 3 4 1 6 6 4 4 4 6 8 6 6 5 4 3 4 5 6 12 17 2 4 12 15 5 1 1 5 3 5 9 10 8 9 11 13
10 11 11 10 11 12 15 16 16 17 18 18 18 18 19 20 20 17 17 16 14 13 10 10 6 2 0 1 4 10 4 4 1 4 7 8 9 8 8 6 6 6 5 2 6 8 4 4 3 3 1 5 3 3 2 4 1 2 2 5 7 6 7 10 6 12 1 7 10 10 13 11 4 2 15 23 3 2 3 5 3 5 9 9 10 10 9 12
11 12 13 14 13 15 16 17 18 18 19 19 19 19 20 18 17 17 16 15 14 11 9 8 6 1 2 1 8 10 1 2 3 4 6 8 5 7 5 6 7 6 8 5 5 4 5 3 5 2 4 1 2 0 3 4 0 1 2 8 9 6 9 15 7 7 8 8 5 8 2 8 4 9 20 19 14 3 6 12 8 9 9 9 8 9 8 14
10 12 13 14 16 16 18 18 19 19 19 20 19 20 20 19 17 16 15 14 9 10 8 5 5 1 1 4 11 7 1 0 4 6 3 1 2 2 2 2 5 3 4 4 1 3 5 6 3 2 3 1 1 2 1 1 2 3 1 0 11 9 9 15 3 1 6 4 7 6 8 5 13 18 17 18 9 2 4 12 14 8 9 9 8 9 11 10
10 10 11 13 14 15 16 17 19 20 21 21 20 21 21 20 18 16 14 13 12 8 6 3 3 2 2 7 6 2 1 3 6 3 4 2 2 1 2 4 4 2 0 2 0 2 4 1 5 2 1 3 4 2 1 4 3 4 4 1 5 7 10 5 2 1 2 4 8 3 10 10 12 19 15 11 4 5 9 13 13 11 8 8 8 9 12 14
9 9 10 13 13 12 14 17 18 19 20 21 22 22 21 22 20 16 14 11 7 3 4 5 0 3 1 8 4 6 2 2 2 5 5 6 5 1 2 1 3 3 2 3 2 1 3 5 4 1 3 0 1 4 6 2 3 2 4 7 2 6 8 16 5 5 9 2 3 6 11 14 14 18 18 5 1 4 8 12 12 11 10 9 7 9 11 14
8 8 9 12 13 14 13 14 17 19 21 22 22 21 21 20 18 14 9 7 5 4 1 0 0 2 2 6 1 2 1 2 6 4 5 6 7 5 2 4 2 4 2 2 2 3 1 3 1 3 1 1 2 2 3 5 5 3 6 7 9 2 6 9 12 4 12 5 1 11 12 1 8 14 17 5 3 5 8 11 12 13 12 12 9 8 9 11
7 8 9 11 13 14 13 16 17 19 20 20 22 19 18 14 10 3 8 8 4 4 1 1 0 0 2 3 0 2 6 5 1 1 2 1 5 5 6 4 1 3 4 4 3 3 3 2 0 1 2 4 2 5 1 3 9 7 1 7 3 7 4 6 9 11 3 6 4 7 8 13 14 10 9 12 2 3 7 13 13 12 10 10 9 9 10 11
9 11 9 11 13 14 14 15 18 19 19 20 21 16 13 11 5 9 7 6 3 3 0 0 2 1 9 2 6 8 0 2 1 2 3 0 4 4 4 2 2 5 4 2 2 3 2 1 3 6 1 3 2 3 6 10 10 8 4 5 8 5 7 13 2 5 2 2 7 2 11 16 15 14 13 13 13 7 9 12 14 13 11 10 9 11 13 13
8 11 10 12 12 12 13 16 18 19 19 21 20 13 4 2 2 2 5 1 3 1 1 2 4 5 5 5 7 6 1 1 1 2 2 4 1 3 4 3 5 8 2 2 3 4 2 4 4 3 6 9 11 10 13 17 11 13 9 8 3 7 7 6 12 12 7 16 7 5 15 18 15 14 15 13 15 16 17 15 15 15 13 13 14 15 15 16
8 10 11 12 12 11 13 16 17 18 20 13 8 4 2 5 4 0 6 3 2 5 1 3 6 3 6 6 1 1 0 1 1 2 2 1 8 4 2 2 4 4 6 6 1 4 3 7 9 9 14 17 12 12 18 20 14 3 1 3 10 10 11 9 13 10 1 5 12 15 19 19 17 15 17 16 13 16 17 18 17 15 15 14 14 16 19 18
7 8 10 10 10 10 12 16 15 16 17 6 5 5 3 0 2 4 6 10 8 6 6 7 12 8 10 1 3 0 1 2 1 0 3 2 3 10 3 3 3 2 5 4 6 1 2 8 8 14 19 18 13 12 11 8 4 6 7 6 12 5 15 15 12 9 0 3 5 5 15 19 18 15 16 15 9 18 20 22 21 18 16 15 16 20 20 20
7 7 7 9 10 10 12 13 14 15 10 3 5 5 1 1 0 1 1 7 5 7 7 14 1 7 7 12 6 3 4 3 3 3 1 3 4 7 3 5 5 11 2 3 1 1 6 11 13 18 16 2 1 2 3 6 8 7 9 8 8 11 14 14 13 16 8 2 15 9 18 20 16 15 14 15 19 16 17 21 21 18 16 14 16 19 20 18
8 7 7 7 8 10 12 13 13 9 4 5 3 2 0 0 1 1 2 1 8 4 3 8 6 11 12 8 3 6 5 9 12 2 6 5 3 5 4 4 5 1 4 6 11 6 7 6 17 14 5 5 5 1 2 1 3 6 6 5 13 8 3 13 3 2 1 5 7 5 17 20 14 15 18 19 21 18 15 20 20 17 18 18 21 21 18 19
9 7 7 7 6 8 12 12 10 4 4 1 3 1 0 2 4 2 1 3 5 7 9 5 3 3 9 6 3 10 12 4 2 7 1 5 8 3 4 5 3 4 9 13 16 14 17 4 7 9 6 7 11 7 3 5 13 6 11 11 11 11 16 12 7 5 6 6 5 13 17 18 11 14 11 15 18 17 14 17 16 19 17 17 19 19 19 21
9 8 8 7 6 5 9 9 4 1 0 1 1 2 0 2 3 3 1 5 1 6 2 1 4 4 5 3 2 3 2 1 5 0 4 8 5 3 4 2 3 9 8 12 10 11 13 5 2 4 7 6 7 7 8 9 14 10 7 11 20 19 13 8 9 7 4 7 2 1 11 17 5 13 14 11 5 8 10 11 16 21 19 17 18 22 20 16
9 9 8 6 4 5 7 4 1 0 1 1 0 0 1 2 2 1 1 2 7 4 3 2 2 1 1 0 1 4 3 4 2 4 5 4 2 3 2 2 4 10 7 4 8 6 6 3 6 7 6 8 7 8 7 9 16 11 7 14 18 12 8 8 12 3 6 3 3 2 0 22 4 4 8 6 7 12 7 7 16 19 17 14 16 18 16 13
9 9 8 6 4 1 3 1 0 0 3 1 0 1 1 3 0 1 2 3 5 4 3 1 1 1 1 0 2 3 1 3 1 4 2 5 5 0 4 5 1 1 2 2 2 7 3 3 6 5 6 6 6 5 13 15 10 10 2 6 6 6 7 9 6 6 8 1 4 1 3 7 25 10 10 12 13 10 11 14 17 17 16 15 15 13 14 16
9 9 8 8 6 5 2 1 3 2 2 1 2 3 3 4 3 0 1 5 5 1 1 1 1 1 1 1 3 1 1 1 1 1 0 3 1 2 2 4 7 4 2 4 12 1 6 3 5 5 4 5 8 19 1 11 8 5 1 5 5 8 7 2 5 6 3 3 9 3 3 4 12 7 2 6 5 8 11 17 18 17 16 14 13 13 16 17
8 8 8 8 8 5 2 0 1 2 1 3 3 3 4 4 1 3 3 4 1 1 1 1 3 0 2 1 1 1 1 3 0 1 4 1 3 1 1 3 1 1 3 7 13 3 2 3 7 9 8 10 11 2 6 12 7 4 5 7 6 5 4 3 4 3 1 1 10 7 7 6 20 14 5 3 1 7 13 16 17 14 12 13 12 12 16 13
6 8 7 6 5 2 0 2 4 1 4 4 3 4 3 2 1 1 2 7 3 3 1 1 1 1 2 3 1 2 1 2 2 2 3 2 2 1 0 1 2 3 7 3 6 9 4 1 5 5 9 5 2 0 3 8 4 4 3 2 4 6 3 3 5 2 3 8 11 14 13 9 15 5 9 8 8 8 9 4 7 10 11 14 13 14 14 14
9 8 7 9 4 3 4 2 6 6 5 3 4 2 1 3 1 2 12 3 3 3 1 1 1 3 2 1 1 2 0 0 1 2 0 1 1 2 1 1 3 2 1 3 8 10 3 0 1 4 4 4 3 2 3 1 1 3 2 2 3 4 6 1 3 2 3 12 4 14 15 13 13 2 4 5 3 4 7 8 8 10 13 12 10 11 11 11
9 9 8 7 3 5 6 4 1 5 5 4 2 0 1 3 1 9 6 3 1 2 1 1 1 2 1 1 2 1 2 1 1 2 5 3 4 5 6 8 4 1 5 4 8 4 4 11 5 2 4 10 3 1 1 3 2 4 4 1 2 5 6 3 2 1 5 11 2 3 7 3 21 15 4 8 11 6 7 9 9 10 11 11 11 13 12 10
9 8 6 5 4 3 4 2 4 5 5 2 1 2 1 2 12 6 2 1 4 1 2 3 0 0 1 2 3 2 0 3 1 2 4 0 4 5 3 7 6 6 10 2 2 4 9 2 2 5 1 6 8 8 1 1 4 7 7 5 5 3 4 6 4 2 6 8 3 4 1 12 12 8 10 16 20 19 10 9 10 9 11 12 11 9 10 11
10 6 2 3 6 7 3 5 4 6 4 2 3 3 4 6 12 5 4 6 7 2 3 1 1 1 2 6 3 3 3 4 4 2 4 1 2 2 4 5 4 3 2 1 4 2 7 11 7 7 4 6 13 12 15 10 10 14 4 13 11 10 6 5 5 9 9 9 1 3 4 9 1 5 3 11 5 5 4 6 10 10 8 8 9 11 14 14
9 6 3 3 5 8 5 5 6 5 7 5 3 6 7 15 7 5 4 3 3 3 6 1 2 2 5 1 2 3 6 5 2 3 2 4 4 4 5 4 6 4 1 3 3 2 9 12 7 10 1 9 12 12 5 6 3 3 3 3 1 11 6 8 8 8 11 8 4 2 8 3 7 1 4 6 9 9 7 5 4 7 8 8 10 12 14 15
6 3 2 3 3 5 7 5 5 6 9 6 4 7 16 11 3 3 5 3 0 2 1 4 1 3 5 3 2 4 4 5 2 2 2 4 2 4 4 3 6 15 9 9 4 3 1 7 1 2 5 2 1 4 3 5 6 3 7 7 11 3 7 7 5 5 2 3 15 3 8 12 6 14 6 5 5 10 7 9 8 10 10 8 9 12 12 11
3 4 3 3 7 5 8 7 7 7 6 7 6 13 13 6 6 2 3 4 3 5 1 3 3 4 1 3 2 0 2 2 4 4 4 2 5 7 4 7 6 9 16 12 5 4 7 10 1 4 5 1 1 0 1 3 2 8 4 7 2 2 3 3 6 1 4 12 10 3 15 13 4 15 2 5 5 6 4 7 10 7 7 7 11 9 11 12
4 3 5 6 8 8 9 10 10 6 6 8 13 18 2 7 3 11 2 1 2 1 5 5 5 6 3 6 6 2 2 3 2 3 3 5 6 4 3 2 6 12 16 10 4 3 2 8 7 1 1 5 3 0 5 1 0 2 4 2 3 4 5 3 4 6 9 11 7 9 18 19 11 17 8 11 12 10 10 6 4 7 6 5 6 8 8 9
2 3 6 7 8 12 11 12 10 9 5 7 12 14 6 13 2 3 7 6 3 2 7 5 7 3 7 8 5 2 4 6 3 4 4 4 6 6 8 3 0 6 4 6 2 1 3 5 2 0 2 1 1 2 5 2 2 1 1 2 1 1 3 3 7 1 2 13 9 11 11 15 7 3 4 6 8 7 6 5 1 5 9 6 6 6 8 8
1 2 6 2 1 9 11 12 7 7 7 15 13 12 2 2 4 5 4 7 4 5 3 7 4 9 5 10 5 9 3 6 5 6 7 2 8 2 1 2 3 1 4 6 5 1 5 3 9 2 1 2 2 3 7 6 5 3 2 4 2 1 3 2 3 2 6 10 10 10 13 9 9 3 2 3 5 3 3 4 5 4 5 7 6 6 8 9
1 3 5 2 3 10 11 8 7 12 11 6 10 10 8 7 1 2 5 5 3 4 7 2 3 8 5 6 10 5 3 5 4 7 4 4 7 8 3 5 4 3 2 4 1 2 0 2 6 2 8 10 9 2 7 4 2 3 6 6 8 7 6 9 11 3 4 7 10 10 15 5 6 7 5 1 3 3 3 2 5 7 8 6 5 5 4 7
2 5 3 3 9 15 12 11 6 4 3 8 11 7 6 5 8 7 3 2 5 3 3 3 5 7 6 10 10 7 4 4 6 6 4 12 6 12 2 4 5 5 4 3 3 3 4 2 2 6 10 13 9 5 5 4 4 7 7 9 7 5 4 5 13 10 6 6 6 12 13 10 1 14 15 4 4 5 6 5 7 5 6 7 11 9 6 4
4 7 2 1 4 13 9 10 9 5 8 3 2 4 1 3 2 2 3 2 4 3 3 5 7 7 8 10 5 7 4 6 6 8 2 3 4 8 5 7 5 6 4 2 3 3 7 1 3 7 4 7 13 12 7 7 6 5 4 8 9 12 11 11 10 9 11 9 11 10 14 4 4 9 18 15 13 7 3 2 3 4 5 8 10 12 17 19
2 3 5 2 1 1 10 11 11 13 8 6 5 7 2 3 3 6 6 3 3 2 6 4 2 9 8 5 4 7 4 8 6 14 10 10 8 6 7 7 4 2 3 6 3 4 3 2 4 7 3 3 5 6 9 2 2 4 7 8 13 15 15 15 12 0 12 12 14 14 18 7 5 8 14 19 20 20 15 10 2 6 8 7 7 8 7 8
3 3 5 5 1 3 7 4 9 6 9 11 9 13 8 4 5 11 9 5 2 5 1 3 6 0 4 2 6 5 4 12 7 3 5 2 5 2 6 9 11 11 9 6 11 1 11 5 5 9 11 13 11 10 10 8 7 5 3 8 11 15 17 10 11 8 16 9 15 16 15 12 10 9 13 18 23 25 23 14 2 3 5 7 8 7 8 7
2 2 2 0 2 1 6 5 5 2 4 8 11 11 9 12 5 3 7 7 9 4 6 3 4 1 3 1 3 4 7 5 8 2 3 1 2 2 3 12 6 4 10 12 5 3 3 2 8 11 12 15 14 13 9 9 2 7 5 7 8 10 13 14 12 13 16 14 17 17 17 18 15 12 14 18 20 22 23 22 13 6 6 7 5 4 7 10
3 2 1 2 2 5 8 1 5 0 4 2 6 2 12 15 8 4 8 4 4 6 3 6 4 4 3 6 8 9 9 12 8 12 11 11 2 3 8 5 6 11 11 5 9 0 1 7 11 15 18 16 18 19 17 11 15 12 13 14 9 10 7 12 12 17 11 15 20 9 15 16 16 13 16 18 17 18 20 21 20 14 11 9 9 12 13 13
2 4 1 3 2 3 5 8 3 7 4 2 5 4 3 4 3 5 1 1 1 2 3 2 4 1 3 2 2 4 3 2 2 5 5 6 4 10 9 5 3 5 11 4 7 2 4 6 6 11 17 15 19 20 19 17 15 16 18 18 20 18 17 17 18 17 14 16 22 14 14 17 14 11 12 15 16 17 16 19 20 19 18 16 13 12 13 13
1 2 3 4 1 4 3 3 6 3 3 3 2 4 11 12 13 7 1 3 1 2 3 6 5 4 5 4 2 2 3 4 6 4 1 5 5 4 5 5 1 6 8 7 8 1 3 6 9 12 16 14 16 17 17 20 19 18 18 19 20 20 22 23 25 22 22 22 21 21 21 25 19 20 16 13 13 14 14 16 18 19 14 13 14 12 11 10
2 2 3 4 2 4 3 4 1 1 4 5 4 6 8 8 15 4 1 4 7 4 0 1 3 2 2 1 1 1 4 3 5 5 1 4 7 0 2 3 8 2 3 6 5 3 2 5 12 11 12 12 12 16 17 21 20 21 16 16 18 21 23 24 23 21 20 22 21 26 27 26 10 12 12 10 9 10 14 15 12 12 14 13 13 14 13 13
3 1 1 4 5 3 1 1 4 3 4 4 7 4 4 4 6 3 4 1 3 3 2 4 3 2 0 1 2 4 3 4 1 2 4 1 5 1 2 4 2 10 12 3 2 2 1 6 5 7 11 11 7 9 12 13 14 17 19 20 20 21 22 18 17 19 19 22 22 21 18 12 9 13 9 12 13 14 13 11 11 11 10 10 11 12 12 13
1 2 1 2 5 5 2 2 1 2 6 3 1 4 1 2 5 5 3 4 1 4 7 5 3 5 5 5 5 5 6 3 4 7 7 8 9 11 10 11 11 8 4 8 3 6 3 4 6 9 12 12 12 11 8 13 17 17 16 16 21 21 18 17 17 17 17 12 13 11 6 5 6 9 12 13 14 14 12 10 7 9 7 6 7 8 9 10
Wind_Direction
15 12 9 7 6 5 4 4 3 2 360 359 358 356 356 357 355 353 352 350 347 348 346 343 346 345 342 338 337 342 341 42 39 29 196 238 201 251 204 81 145 132 138 98 84 107 46 27 124 350 39 32 296 45 260 45 110 66 167 126 261 205 162 214 199 191 228 250 288 332 236 176 298 311 263 32 292 226 279 253 288 293 259 223 268 331 122 137
12 9 7 5 3 3 1 359 360 358 355 354 353 351 352 351 349 348 349 346 346 345 344 343 342 345 345 337 341 346 13 27 294 171 232 232 310 257 199 153 140 139 118 104 148 144 123 229 196 62 91 175 327 161 34 225 124 137 127 121 235 187 240 163 205 222 178 258 241 274 295 188 243 132 293 277 276 265 269 257 297 281 280 269 23 95 136 145
9 6 5 3 1 359 358 356 354 353 352 349 349 348 348 345 345 345 345 345 343 343 343 340 342 343 340 343 333 4 8 350 10 278 264 93 272 203 163 151 150 157 130 154 197 152 161 191 172 104 15 164 352 202 49 242 140 229 133 239 243 213 238 221 214 247 200 269 304 290 297 161 249 169 308 222 257 272 243 244 276 247 253 239 180 158 160 167
8 5 2 2 359 356 354 352 351 348 348 347 344 345 344 342 342 344 343 341 341 342 341 341 339 342 338 335 346 322 82 30 303 244 275 247 169 140 127 134 144 134 57 63 160 133 108 86 97 110 89 168 290 37 173 237 130 253 122 212 230 215 210 257 210 240 257 209 248 250 348 310 270 222 157 234 309 254 244 216 211 225 232 240 184 183 175 176
3 3 360 356 355 354 348 347 346 345 343 342 341 341 341 340 340 340 340 338 340 340 340 337 339 339 336 335 340 95 35 48 247 238 239 154 146 133 126 129 129 100 107 137 90 66 77 104 108 58 95 217 335 42 244 232 196 116 211 221 207 129 228 250 231 219 216 194 226 283 317 263 308 301 224 213 234 269 204 225 216 228 232 219 181 196 180 185
359 356 354 350 349 349 345 340 342 341 338 338 337 338 338 337 338 335 337 338 337 337 337 336 337 337 335 332 50 74 63 331 246 271 145 166 138 116 115 116 121 109 104 97 115 110 122 32 100 131 255 116 196 177 262 180 143 242 265 251 230 214 239 264 216 202 176 256 243 295 251 331 249 268 224 191 226 256 190 207 207 221 229 221 166 154 186 192
351 351 344 342 343 341 339 338 337 337 336 334 335 333 331 334 333 337 334 335 333 332 333 333 335 340 330 359 102 87 149 253 323 254 141 132 136 114 97 100 105 95 108 124 119 140 187 124 148 215 114 330 282 202 247 173 231 223 258 216 275 200 231 256 265 275 266 244 257 219 349 293 279 293 141 216 248 248 265 241 234 231 247 123 152 180 188 194
343 342 337 332 335 335 333 333 334 331 331 329 328 328 327 328 330 329 329 326 326 325 326 329 332 336 351 55 357 334 43 251 246 247 164 130 107 111 103 76 104 112 136 183 166 179 132 157 186 128 207 198 228 162 229 147 124 208 265 223 267 241 243 260 261 276 266 259 259 309 287 263 240 250 9 272 265 267 247 237 247 238 171 178 185 193 202 204
333 332 333 329 329 329 329 328 328 329 327 326 326 324 325 324 325 324 322 321 321 318 318 324 326 339 319 80 111 325 269 235 221 189 155 134 127 107 137 143 129 144 173 154 212 178 142 242 203 177 248 223 193 189 245 180 288 209 235 234 272 261 278 267 292 250 239 267 182 263 261 266 263 278 264 259 270 278 252 244 238 224 194 196 208 203 199 206
331 330 328 328 325 328 327 326 325 325 325 324 321 321 320 320 319 320 317 317 316 316 309 314 328 326 39 85 42 276 261 214 182 150 146 133 119 111 160 147 149 145 140 214 105 134 186 214 181 211 157 246 152 214 116 156 239 166 226 235 256 268 297 276 220 268 186 227 173 206 265 271 327 149 278 271 242 244 308 230 269 206 220 218 217 213 211 208
326 327 327 327 327 327 328 327 326 325 324 322 318 315 317 320 319 316 319 317 318 308 307 299 320 27 115 130 201 250 227 102 161 147 145 142 128 140 198 169 172 157 169 116 195 193 201 158 182 105 113 222 125 278 167 225 168 267 245 302 285 290 267 261 249 264 177 278 198 205 246 270 297 186 244 267 203 36 278 278 265 230 231 228 224 218 215 218
322 324 325 327 328 327 327 328 326 325 323 320 316 314 315 310 308 311 313 314 312 305 299 301 278 157 73 106 219 229 304 201 134 153 155 149 161 201 183 170 170 174 168 194 236 238 169 172 134 138 219 81 281 337 254 245 2 258 9 316 295 322 326 277 265 257 158 252 155 165 238 287 256 214 244 245 265 253 282 283 261 235 238 237 230 227 220 222
315 318 322 324 325 324 326 325 325 324 322 320 315 312 309 306 303 303 305 309 302 298 293 286 103 152 95 296 236 234 312 204 132 126 129 163 99 78 137 152 173 155 171 178 228 227 178 145 154 168 229 146 184 247 150 65 299 340 40 123 317 316 311 289 122 18 152 252 141 138 279 199 256 252 247 261 263 278 288 269 269 248 240 239 231 229 235 237
308 310 314 319 318 321 323 323 322 322 322 320 316 311 308 303 300 299 297 295 299 298 305 220 140 112 114 244 268 266 317 116 106 122 194 158 168 255 74 58 99 100 314 133 175 109 122 150 133 175 108 183 257 300 340 348 15 265 264 77 250 336 268 277 79 141 209 210 171 146 249 264 261 269 263 260 249 217 245 256 264 268 250 240 232 228 233 240
293 299 306 316 317 317 317 319 320 321 320 318 314 307 304 302 300 299 294 291 281 290 179 95 30 84 119 267 260 295 143 107 174 226 173 147 163 306 192 113 72 42 117 109 150 120 127 114 95 126 252 313 28 324 296 27 352 298 1 259 333 212 271 291 304 199 248 299 187 127 259 248 251 265 273 260 252 185 232 253 260 263 266 252 237 234 238 242
294 301 306 309 315 317 315 315 320 321 320 316 312 304 304 301 301 302 292 262 237 194 117 54 222 111 90 296 254 87 65 203 256 221 220 155 167 199 183 134 117 47 84 6 81 109 50 105 150 192 271 356 251 158 15 9 323 343 201 270 266 231 268 348 292 189 227 211 256 180 244 282 286 250 271 293 244 203 242 258 262 262 262 268 258 245 245 259
293 302 307 309 316 318 318 322 323 322 319 315 310 307 307 312 325 19 60 75 84 87 126 191 88 75 221 240 175 265 236 231 206 29 109 192 156 154 109 87 111 86 59 56 42 88 346 120 304 21 36 206 147 99 349 326 277 269 148 229 203 249 281 270 305 283 221 183 214 231 244 243 257 271 284 296 213 208 238 257 260 262 263 260 270 268 256 248
300 306 305 309 315 320 319 322 326 322 320 317 309 314 311 328 84 92 60 58 83 116 225 183 131 52 273 356 265 240 344 247 34 179 75 314 120 115 108 105 59 97 97 41 355 143 301 148 40 195 343 249 120 133 164 236 219 235 215 247 273 248 229 254 313 267 57 187 222 280 252 264 267 276 277 275 288 258 250 255 261 262 265 266 261 263 264 257
293 304 303 311 314 316 320 325 325 324 324 316 309 309 319 359 23 86 73 8 95 32 31 230 141 170 221 227 278 340 215 220 130 130 215 119 43 102 66 85 111 121 142 107 265 136 2 66 34 83 225 231 225 187 195 227 230 235 219 242 232 260 241 212 237 260 276 278 267 228 256 264 263 267 270 269 269 268 267 261 264 264 261 263 261 261 260 259
277 293 302 307 313 310 317 325 322 325 328 327 343 4 13 19 4 318 346 24 222 186 180 215 258 297 323 293 249 266 109 30 127 284 102 279 120 132 66 93 35 54 119 192 184 211 136 164 175 187 220 223 222 191 212 225 235 292 205 223 252 256 275 258 260 264 194 326 258 264 265 265 267 263 267 268 275 280 274 269 263 261 263 259 258 255 255 255
264 274 293 295 294 304 316 323 321 330 327 329 327 50 59 123 17 314 316 259 251 264 252 240 206 224 236 1 291 335 324 287 163 268 190 133 107 122 227 92 131 155 223 164 151 278 107 210 213 208 220 225 214 210 226 255 305 251 269 269 266 237 271 254 271 266 268 190 272 209 271 271 269 267 267 274 257 264 269 272 270 263 256 259 261 262 259 254
258 260 271 283 293 310 320 321 323 333 328 35 46 74 164 209 185 232 107 309 316 245 230 247 200 254 263 248 217 150 64 306 279 202 257 147 174 161 258 150 160 205 104 104 10 179 213 214 219 223 231 269 302 182 186 208 237 247 236 261 289 260 258 279 263 270 260 195 278 269 263 266 264 262 264 261 260 248 255 259 264 269 269 262 259 258 262 265
248 249 257 271 292 313 320 318 325 345 3 26 40 68 183 239 78 45 72 254 266 257 237 248 229 229 258 264 231 124 231 225 250 149 191 140 73 222 143 139 190 93 143 163 203 209 264 248 236 236 247 261 277 174 140 196 224 218 236 253 247 263 305 284 206 333 338 193 293 275 281 278 269 259 252 249 256 251 243 257 263 259 258 257 255 255 259 264
249 248 254 263 288 311 316 323 326 36 23 119 106 127 253 95 106 97 74 240 278 301 225 229 205 206 225 232 211 175 207 255 189 259 172 139 153 180 114 171 124 138 194 202 213 218 228 223 229 224 216 208 238 241 230 257 263 197 217 233 260 256 241 236 270 344 305 276 240 297 288 277 239 247 241 251 241 255 252 258 264 264 255 249 256 262 253 254
250 248 247 255 275 308 305 328 25 346 87 52 329 254 212 138 129 145 53 304 325 274 289 297 171 247 235 46 80 120 249 280 222 164 189 153 145 75 228 175 121 224 202 212 236 252 263 255 118 159 210 215 223 251 225 221 263 245 219 204 235 245 269 270 283 343 353 316 315 23 327 293 184 203 219 229 253 249 245 245 255 258 258 255 257 257 256 252
252 247 248 242 244 284 310 351 318 127 8 225 221 306 113 105 86 72 93 33 290 263 347 253 144 319 73 80 114 184 108 252 258 225 163 226 166 162 80 216 164 244 194 191 219 229 233 233 180 204 183 210 206 223 232 184 243 258 261 207 234 247 251 265 279 357 281 241 318 31 155 293 162 205 223 229 236 244 262 235 247 254 255 254 252 258 266 259
258 252 245 229 212 316 17 288 241 25 3 340 239 86 152 98 156 78 348 309 315 206 165 259 72 237 153 253 159 128 130 268 292 22 36 355 190 320 182 218 335 311 146 159 15 269 185 277 195 216 191 183 185 248 241 188 229 264 234 173 207 221 223 238 229 201 252 279 280 170 149 251 298 282 198 209 220 232 245 252 252 251 256 254 253 262 268 266
261 254 242 221 201 168 189 315 3 349 229 205 139 135 100 118 100 84 73 323 283 339 106 253 215 322 95 296 90 149 199 291 27 321 258 282 89 333 186 210 203 174 189 105 241 233 163 217 185 194 188 173 200 220 204 148 184 225 277 155 191 203 211 180 189 209 225 25 302 177 82 293 261 262 118 161 206 250 245 246 247 251 253 257 270 268 261 261
264 258 242 218 195 185 77 152 122 231 203 165 137 127 113 132 104 83 110 253 244 77 297 67 302 25 346 358 152 84 312 9 110 281 305 37 38 143 250 249 179 220 272 181 247 266 293 193 208 176 155 215 227 242 149 167 198 268 112 78 71 69 68 131 128 152 310 356 257 172 171 232 275 293 92 28 143 235 238 236 243 250 264 272 266 266 269 270
310 268 246 199 127 87 33 98 211 207 129 151 143 129 149 135 32 355 313 241 26 295 131 244 103 236 62 107 295 358 275 315 145 321 27 146 328 33 251 156 176 244 259 288 250 244 232 338 161 132 204 220 138 334 172 193 182 124 79 68 7 35 27 19 65 86 22 259 259 170 195 172 271 293 165 142 197 209 233 287 278 274 265 262 263 262 269 274
358 341 289 163 171 188 127 258 250 164 153 138 143 137 204 41 103 153 244 226 7 237 16 10 205 12 91 137 284 318 183 264 292 113 146 342 358 46 349 307 46 35 359 298 271 271 246 62 176 248 80 82 106 99 30 38 140 139 215 127 25 322 13 28 342 33 199 272 219 186 182 184 229 287 306 235 276 259 204 222 241 249 254 260 267 266 264 269
347 342 324 187 206 154 167 231 222 135 149 151 117 36 69 334 57 217 222 346 298 281 114 271 353 117 92 16 116 253 170 325 231 150 179 177 156 157 195 196 156 225 311 230 264 26 261 222 211 113 209 157 159 135 307 19 67 112 85 97 200 268 28 313 26 304 194 236 270 221 165 311 239 249 284 293 273 271 236 218 228 244 261 267 269 267 268 271
338 337 317 244 178 208 248 125 123 132 111 88 77 55 70 122 255 202 250 0 269 104 278 85 234 326 139 71 262 255 145 218 206 208 122 242 157 250 253 199 191 178 250 252 263 337 274 269 146 221 63 215 138 186 238 302 205 133 165 162 128 263 247 253 263 250 295 282 256 162 167 242 280 291 210 249 253 249 248 232 238 240 246 254 259 282 299 297
327 331 318 222 213 210 205 148 157 136 104 61 82 41 83 231 238 82 180 203 226 357 115 86 5 31 146 219 245 157 298 238 147 226 169 196 121 252 276 249 158 279 200 331 270 199 304 296 230 136 234 184 180 198 198 195 161 196 145 159 187 183 160 237 190 243 242 249 328 270 121 233 94 240 237 224 292 326 269 244 243 251 261 281 304 298 290 290
315 303 225 247 236 229 204 179 165 148 106 110 121 172 212 241 248 244 241 278 298 331 294 45 358 35 299 319 275 248 203 297 129 95 189 148 234 194 203 216 222 157 77 229 242 80 215 240 265 189 15 149 182 218 180 92 69 211 163 69 57 229 135 225 221 235 267 284 333 208 213 212 233 131 270 244 262 273 264 269 336 286 283 282 286 280 274 275
340 295 220 241 198 217 190 181 148 128 137 146 146 206 223 218 240 182 238 183 174 220 265 342 229 274 246 272 300 218 309 189 289 124 279 196 223 224 211 204 181 191 173 198 183 231 302 264 286 260 41 165 244 6 212 152 223 222 114 200 219 90 154 246 266 261 51 41 259 217 296 269 315 282 268 270 267 266 294 297 287 281 267 272 266 269 278 286
338 325 270 198 210 194 186 163 158 141 141 165 193 232 226 255 192 175 250 164 216 136 76 282 243 216 200 261 212 112 246 112 248 155 253 157 297 212 231 248 182 192 203 193 276 210 252 278 16 136 247 352 186 274 348 17 141 106 202 241 42 125 105 164 222 344 205 234 250 265 262 272 342 286 357 12 18 309 296 260 263 293 317 293 279 298 316 314
314 279 256 241 211 185 168 164 150 154 155 178 212 234 126 239 217 215 155 156 336 311 243 213 269 226 245 243 259 205 273 190 242 127 239 180 259 147 115 233 212 188 211 226 208 277 69 277 260 331 156 287 339 235 320 14 357 145 187 279 146 240 250 247 95 228 235 238 256 221 267 272 239 260 282 305 301 286 272 275 348 307 287 289 302 299 284 275
304 307 298 249 212 178 160 156 155 153 163 207 222 247 219 243 128 201 206 226 233 234 240 233 242 232 241 240 265 248 190 241 165 200 246 231 224 206 197 172 314 201 244 175 217 237 37 267 297 348 116 324 17 101 232 235 325 101 14 309 298 82 231 146 199 207 210 256 248 246 228 259 251 208 239 236 239 250 277 314 304 295 286 292 290 283 284 301
348 285 257 285 316 147 144 149 140 170 191 215 216 231 96 289 242 237 242 200 242 198 244 251 204 260 243 261 260 263 250 238 208 250 201 250 237 262 140 298 162 339 200 202 202 203 234 195 251 210 212 0 290 182 213 177 210 232 242 277 310 212 228 105 308 182 221 255 239 265 249 240 255 204 201 229 230 222 204 254 272 268 276 280 273 279 310 315
293 239 268 35 103 127 135 137 170 197 213 234 242 246 240 249 268 300 252 234 244 237 241 205 179 230 235 272 259 244 251 231 214 236 211 249 216 280 229 169 167 150 50 35 68 258 42 296 244 355 309 256 237 192 190 187 160 163 189 229 227 239 275 260 258 177 222 233 250 252 255 249 275 276 204 219 218 188 203 219 280 295 304 301 285 294 294 311
219 230 245 11 142 147 147 186 208 190 232 209 222 215 248 237 259 254 259 263 201 241 17 242 234 249 253 254 262 265 266 236 221 246 206 239 208 224 235 146 155 160 118 195 189 234 157 181 152 217 228 250 263 245 198 200 227 240 218 254 246 236 236 239 257 240 269 243 276 261 282 239 207 281 265 241 251 224 265 268 286 271 270 304 319 312 300 274
222 232 321 337 199 157 177 208 205 214 220 248 13 284 195 282 212 242 255 188 233 205 257 236 220 243 238 248 241 261 220 255 181 231 257 273 255 222 218 183 123 53 13 274 248 250 79 158 188 249 260 278 279 275 254 204 221 280 250 226 228 237 223 243 248 253 260 268 267 265 248 259 205 252 275 291 283 264 236 215 254 288 318 327 328 322 323 325
273 287 314 298 241 6 192 209 213 216 226 261 242 248 211 214 232 256 236 222 182 216 217 225 310 228 257 220 227 236 166 272 192 235 245 238 260 232 237 252 249 284 143 229 296 201 275 213 218 280 253 274 270 301 279 81 122 208 223 213 217 232 237 241 253 2 263 236 247 255 259 245 236 250 267 278 281 280 271 261 206 296 298 296 300 298 293 297
320 266 232 285 303 219 232 213 239 225 219 234 230 247 245 241 213 229 244 243 211 225 304 263 234 29 275 236 253 251 204 225 280 252 253 206 254 305 332 327 299 266 244 222 225 163 229 208 186 238 261 268 265 254 257 263 214 208 237 227 222 221 234 250 254 234 250 239 237 248 259 250 251 250 263 269 278 280 278 278 276 198 244 283 279 278 284 298
264 302 270 255 248 239 273 299 309 212 246 234 238 240 243 253 249 226 184 251 222 233 233 275 298 229 196 305 282 255 252 220 220 268 240 342 283 347 39 330 4 310 326 328 341 28 270 290 223 234 239 249 252 260 255 265 296 253 246 211 235 232 234 233 248 250 249 258 246 245 256 267 253 256 256 261 265 277 292 296 292 307 291 274 279 313 344 3
284 263 290 296 290 204 252 314 263 278 250 189 250 175 228 239 246 286 180 261 235 214 237 216 232 230 245 221 242 256 243 261 240 250 245 254 335 297 321 0 348 11 4 16 341 194 291 246 234 247 245 247 256 261 268 260 263 261 268 263 253 247 233 239 235 250 259 270 260 250 256 258 259 254 257 266 274 281 285 292 305 313 318 333 13 35 33 23
207 252 32 234 259 240 220 234 265 268 298 302 258 359 299 287 247 247 7 208 311 57 192 329 230 293 354 294 11 246 38 291 255 274 35 33 354 329 343 337 31 9 38 2 357 340 290 255 265 259 260 258 258 262 264 264 253 253 254 259 259 257 255 252 250 247 246 245 263 267 264 265 258 250 260 262 268 274 286 299 315 335 7 32 39 35 26 15
159 316 280 297 72 259 284 319 343 284 314 283 320 272 262 257 259 254 208 317 23 300 213 254 67 23 37 348 15 297 339 261 255 76 21 13 12 310 343 331 209 49 21 358 344 243 290 251 253 258 273 268 268 262 261 260 264 256 247 246 250 254 257 256 259 256 249 254 258 262 263 261 263 265 270 299 340 350 349 358 18 34 25 14 29 23 17 11
288 198 289 5 304 310 312 300 258 288 279 252 261 208 248 239 259 270 338 226 253 269 57 55 60 49 276 75 313 317 285 281 259 260 44 17 337 257 261 258 295 340 53 337 319 266 249 299 3 328 312 294 280 272 266 262 262 264 259 254 250 251 254 253 259 267 273 268 264 258 258 263 281 3 19 15 13 9 17 16 21 24 21 16 12 12 5 4
229 106 282 325 303 246 159 263 240 237 261 235 235 254 257 231 242 55 264 302 167 219 70 148 33 18 266 269 265 242 237 144 288 223 263 205 265 297 53 273 65 308 313 280 204 264 310 283 299 292 294 283 277 281 286 292 286 277 272 266 262 256 255 255 254 250 253 261 266 273 269 276 354 341 351 16 12 18 10 4 16 11 11 12 10 1 360 354
70 303 122 162 254 263 249 266 18 281 243 248 205 246 259 6 70 329 350 252 200 91 101 76 9 3 303 311 291 260 165 187 218 228 231 227 224 244 226 237 244 239 273 281 222 262 232 277 293 301 288 272 284 281 299 304 305 286 270 260 255 259 257 259 257 265 272 290 289 283 356 11 316 351 358 1 6 355 356 344 9 0 14 13 8 356 348 346